Time,TemperatureF,DewpointF,PressureIn,WindDirection,WindDirectionDegrees,WindSpeedMPH,WindSpeedGustMPH,Humidity,HourlyPrecipIn,Conditions,Clouds,dailyrainin,SoftwareType,DateUTC
2013-12-18 00:02:00,21.4,15.0,30.17,WSW,240,0.0,7.0,76,0.00,,,0.00,Wunderground v.1.15,2013-12-18 06:02:00,
2013-12-18 00:08:00,21.4,14.7,30.17,WSW,240,0.0,7.0,75,0.00,,,0.00,Wunderground v.1.15,2013-12-18 06:08:00,
2013-12-18 00:14:00,21.3,14.6,30.17,WSW,240,0.0,7.0,75,0.00,,,0.00,Wunderground v.1.15,2013-12-18 06:14:00,
2013-12-18 00:20:00,21.3,14.6,30.17,WSW,240,0.0,7.0,75,0.00,,,0.00,Wunderground v.1.15,2013-12-18 06:20:00,
2013-12-18 00:26:00,21.3,14.6,30.16,WSW,240,0.0,7.0,75,0.00,,,0.00,Wunderground v.1.15,2013-12-18 06:26:00,
2013-12-18 00:31:00,21.3,14.6,30.16,WSW,240,0.0,7.0,75,0.00,,,0.00,Wunderground v.1.15,2013-12-18 06:31:00,
2013-12-18 00:37:00,21.2,14.5,30.16,WSW,240,0.0,7.0,75,0.00,,,0.00,Wunderground v.1.15,2013-12-18 06:37:00,
2013-12-18 00:42:00,21.0,14.6,30.16,WSW,240,0.0,7.0,76,0.00,,,0.00,Wunderground v.1.15,2013-12-18 06:42:00,
2013-12-18 00:48:00,20.9,14.5,30.15,WSW,240,0.0,7.0,76,0.00,,,0.00,Wunderground v.1.15,2013-12-18 06:48:00,
2013-12-18 00:54:00,20.7,14.3,30.15,WSW,240,0.0,7.0,76,0.00,,,0.00,Wunderground v.1.15,2013-12-18 06:54:00,
2013-12-18 00:59:00,20.6,14.2,30.15,WSW,240,0.0,7.0,76,0.00,,,0.00,Wunderground v.1.15,2013-12-18 06:59:00,
2013-12-18 01:05:00,20.4,14.3,30.15,WSW,240,0.0,7.0,77,0.00,,,0.00,Wunderground v.1.15,2013-12-18 07:05:00,
2013-12-18 01:11:00,20.5,14.4,30.14,WSW,240,0.0,7.0,77,0.00,,,0.00,Wunderground v.1.15,2013-12-18 07:11:00,
2013-12-18 01:17:00,20.8,14.7,30.14,WSW,240,0.0,7.0,77,0.00,,,0.00,Wunderground v.1.15,2013-12-18 07:17:00,
2013-12-18 01:23:00,21.0,14.9,30.14,WSW,240,0.0,7.0,77,0.00,,,0.00,Wunderground v.1.15,2013-12-18 07:23:00,
2013-12-18 01:29:00,21.1,14.7,30.14,WSW,240,0.0,7.0,76,0.00,,,0.00,Wunderground v.1.15,2013-12-18 07:29:00,
2013-12-18 01:35:00,20.9,14.5,30.13,WSW,240,0.0,7.0,76,0.00,,,0.00,Wunderground v.1.15,2013-12-18 07:35:00,
2013-12-18 01:41:00,20.7,14.3,30.13,WSW,240,0.0,7.0,76,0.00,,,0.00,Wunderground v.1.15,2013-12-18 07:41:00,
2013-12-18 01:46:00,20.4,14.3,30.13,WSW,240,0.0,7.0,77,0.00,,,0.00,Wunderground v.1.15,2013-12-18 07:46:00,
2013-12-18 01:52:00,20.3,14.2,30.12,WSW,240,0.0,7.0,77,0.00,,,0.00,Wunderground v.1.15,2013-12-18 07:52:00,
2013-12-18 01:58:00,20.3,14.2,30.12,WSW,240,0.0,7.0,77,0.00,,,0.00,Wunderground v.1.15,2013-12-18 07:58:00,
2013-12-18 02:03:00,20.3,14.2,30.12,WSW,240,0.0,7.0,77,0.00,,,0.00,Wunderground v.1.15,2013-12-18 08:03:00,
2013-12-18 02:09:00,20.2,14.1,30.12,WSW,240,0.0,7.0,77,0.00,,,0.00,Wunderground v.1.15,2013-12-18 08:09:00,
2013-12-18 02:15:00,20.2,14.4,30.11,WSW,240,0.0,7.0,78,0.00,,,0.00,Wunderground v.1.15,2013-12-18 08:15:00,
2013-12-18 02:21:00,20.4,14.6,30.11,SW,223,0.0,7.0,78,0.00,,,0.00,Wunderground v.1.15,2013-12-18 08:21:00,
2013-12-18 02:27:00,20.7,14.9,30.11,SW,224,0.0,7.0,78,0.00,,,0.00,Wunderground v.1.15,2013-12-18 08:27:00,
2013-12-18 02:33:00,21.1,15.0,30.11,SW,224,0.0,7.0,77,0.00,,,0.00,Wunderground v.1.15,2013-12-18 08:33:00,
2013-12-18 02:39:00,21.4,15.3,30.10,SW,224,0.0,7.0,77,0.00,,,0.00,Wunderground v.1.15,2013-12-18 08:39:00,
2013-12-18 02:45:00,21.7,15.3,30.10,SW,224,0.0,7.0,76,0.00,,,0.00,Wunderground v.1.15,2013-12-18 08:45:00,
2013-12-18 02:51:00,22.3,15.9,30.10,ESE,105,1.0,7.0,76,0.00,,,0.00,Wunderground v.1.15,2013-12-18 08:51:00,
2013-12-18 02:57:00,23.1,16.0,30.09,ESE,105,2.0,7.0,74,0.00,,,0.00,Wunderground v.1.15,2013-12-18 08:57:00,
2013-12-18 03:03:00,23.4,16.3,30.09,ESE,105,1.0,7.0,74,0.00,,,0.00,Wunderground v.1.15,2013-12-18 09:03:00,
2013-12-18 03:09:00,23.7,16.3,30.08,ESE,105,0.0,7.0,73,0.00,,,0.00,Wunderground v.1.15,2013-12-18 09:09:00,
2013-12-18 03:14:00,23.9,16.5,30.08,ESE,105,1.0,7.0,73,0.00,,,0.00,Wunderground v.1.15,2013-12-18 09:14:00,
2013-12-18 03:20:00,24.0,16.3,30.08,ESE,105,1.0,7.0,72,0.00,,,0.00,Wunderground v.1.15,2013-12-18 09:20:00,
2013-12-18 03:26:00,24.1,16.4,30.08,ESE,105,1.0,7.0,72,0.00,,,0.00,Wunderground v.1.15,2013-12-18 09:26:00,
2013-12-18 03:32:00,24.2,16.5,30.08,ESE,105,2.0,7.0,72,0.00,,,0.00,Wunderground v.1.15,2013-12-18 09:32:00,
2013-12-18 03:37:00,24.3,16.6,30.07,ESE,105,2.0,7.0,72,0.00,,,0.00,Wunderground v.1.15,2013-12-18 09:37:00,
2013-12-18 03:43:00,24.3,16.2,30.08,ESE,105,2.0,7.0,71,0.00,,,0.00,Wunderground v.1.15,2013-12-18 09:43:00,
2013-12-18 03:49:00,24.3,16.2,30.07,ESE,105,2.0,7.0,71,0.00,,,0.00,Wunderground v.1.15,2013-12-18 09:49:00,
2013-12-18 03:55:00,24.3,16.2,30.07,ESE,105,1.0,7.0,71,0.00,,,0.00,Wunderground v.1.15,2013-12-18 09:55:00,
2013-12-18 04:00:00,24.3,16.2,30.07,ESE,105,2.0,2.0,71,0.00,,,0.00,Wunderground v.1.15,2013-12-18 10:00:00,
2013-12-18 04:06:00,24.3,16.2,30.06,ESE,108,2.0,7.0,71,0.00,,,0.00,Wunderground v.1.15,2013-12-18 10:06:00,
2013-12-18 04:11:00,24.3,16.2,30.06,ESE,109,2.0,7.0,71,0.00,,,0.00,Wunderground v.1.15,2013-12-18 10:11:00,
2013-12-18 04:16:00,24.3,16.2,30.06,ESE,117,2.0,7.0,71,0.00,,,0.00,Wunderground v.1.15,2013-12-18 10:16:00,
2013-12-18 04:22:00,24.3,16.2,30.05,SE,132,2.0,7.0,71,0.00,,,0.00,Wunderground v.1.15,2013-12-18 10:22:00,
2013-12-18 04:28:00,24.3,16.2,30.04,SE,132,2.0,7.0,71,0.00,,,0.00,Wunderground v.1.15,2013-12-18 10:28:00,
2013-12-18 04:34:00,24.5,16.4,30.04,SE,126,3.0,7.0,71,0.00,,,0.00,Wunderground v.1.15,2013-12-18 10:34:00,
2013-12-18 04:40:00,24.7,16.6,30.04,ESE,114,3.0,7.0,71,0.00,,,0.00,Wunderground v.1.15,2013-12-18 10:40:00,
2013-12-18 04:45:00,24.8,16.7,30.04,ESE,110,3.0,7.0,71,0.00,,,0.00,Wunderground v.1.15,2013-12-18 10:45:00,
2013-12-18 04:51:00,25.0,16.6,30.03,ESE,113,3.0,7.0,70,0.00,,,0.00,Wunderground v.1.15,2013-12-18 10:51:00,
2013-12-18 04:57:00,25.2,16.8,30.02,East,95,4.0,7.0,70,0.00,,,0.00,Wunderground v.1.15,2013-12-18 10:57:00,
2013-12-18 05:03:00,25.2,16.8,30.02,East,90,3.0,7.0,70,0.00,,,0.00,Wunderground v.1.15,2013-12-18 11:03:00,
2013-12-18 05:08:00,25.4,17.0,30.01,ESE,118,3.0,7.0,70,0.00,,,0.00,Wunderground v.1.15,2013-12-18 11:08:00,
2013-12-18 05:14:00,25.6,16.8,30.00,East,101,3.0,7.0,69,0.00,,,0.00,Wunderground v.1.15,2013-12-18 11:14:00,
2013-12-18 05:18:00,25.8,17.0,30.00,SE,130,4.0,7.0,69,0.00,,,0.00,Wunderground v.1.15,2013-12-18 11:18:00,
2013-12-18 05:24:00,26.2,17.4,30.00,East,85,4.0,7.0,69,0.00,,,0.00,Wunderground v.1.15,2013-12-18 11:24:00,
2013-12-18 05:30:00,26.6,17.5,29.99,SE,136,4.0,4.0,68,0.00,,,0.00,Wunderground v.1.15,2013-12-18 11:30:00,
2013-12-18 05:36:00,27.1,17.6,29.98,ESE,123,4.0,7.0,67,0.00,,,0.00,Wunderground v.1.15,2013-12-18 11:36:00,
2013-12-18 05:42:00,27.5,17.6,29.98,SE,131,4.0,7.0,66,0.00,,,0.00,Wunderground v.1.15,2013-12-18 11:42:00,
2013-12-18 05:48:00,27.8,17.9,29.98,ESE,114,4.0,7.0,66,0.00,,,0.00,Wunderground v.1.15,2013-12-18 11:48:00,
2013-12-18 05:54:00,27.8,17.9,29.98,ESE,102,4.0,7.0,66,0.00,,,0.00,Wunderground v.1.15,2013-12-18 11:54:00,
2013-12-18 06:00:00,27.7,17.8,29.98,ESE,117,4.0,7.0,66,0.00,,,0.00,Wunderground v.1.15,2013-12-18 12:00:00,
2013-12-18 06:05:00,27.5,18.0,29.97,ESE,110,3.0,7.0,67,0.00,,,0.00,Wunderground v.1.15,2013-12-18 12:05:00,
2013-12-18 06:11:00,27.4,17.9,29.97,SE,126,3.0,7.0,67,0.00,,,0.00,Wunderground v.1.15,2013-12-18 12:11:00,
2013-12-18 06:17:00,27.2,18.0,29.97,ESE,114,4.0,7.0,68,0.00,,,0.00,Wunderground v.1.15,2013-12-18 12:17:00,
2013-12-18 06:23:00,27.1,17.9,29.96,ESE,107,4.0,7.0,68,0.00,,,0.00,Wunderground v.1.15,2013-12-18 12:23:00,
2013-12-18 06:28:00,27.0,18.2,29.96,ESE,122,4.0,7.0,69,0.00,,,0.00,Wunderground v.1.15,2013-12-18 12:28:00,
2013-12-18 06:34:00,27.0,18.2,29.95,SE,130,4.0,7.0,69,0.00,,,0.00,Wunderground v.1.15,2013-12-18 12:34:00,
2013-12-18 06:39:00,27.0,18.5,29.95,ESE,119,4.0,7.0,70,0.00,,,0.00,Wunderground v.1.15,2013-12-18 12:39:00,
2013-12-18 06:45:00,27.0,18.5,29.94,ESE,119,3.0,7.0,70,0.00,,,0.00,Wunderground v.1.15,2013-12-18 12:45:00,
2013-12-18 06:51:00,27.1,18.6,29.94,ESE,121,3.0,7.0,70,0.00,,,0.00,Wunderground v.1.15,2013-12-18 12:51:00,
2013-12-18 06:56:00,27.1,18.9,29.94,ESE,121,2.0,7.0,71,0.00,,,0.00,Wunderground v.1.15,2013-12-18 12:56:00,
2013-12-18 07:02:00,27.1,18.9,29.94,ESE,121,2.0,7.0,71,0.00,,,0.00,Wunderground v.1.15,2013-12-18 13:02:00,
2013-12-18 07:08:00,27.4,19.6,29.93,East,88,2.0,7.0,72,0.00,,,0.00,Wunderground v.1.15,2013-12-18 13:08:00,
2013-12-18 07:14:00,27.5,19.7,29.93,SE,125,3.0,7.0,72,0.00,,,0.00,Wunderground v.1.15,2013-12-18 13:14:00,
2013-12-18 07:20:00,27.6,19.8,29.92,ESE,115,3.0,3.0,72,0.00,,,0.00,Wunderground v.1.15,2013-12-18 13:20:00,
2013-12-18 07:26:00,27.8,20.3,29.91,East,101,3.0,7.0,73,0.00,,,0.00,Wunderground v.1.15,2013-12-18 13:26:00,
2013-12-18 07:31:00,28.1,20.9,29.92,SE,128,2.0,7.0,74,0.00,,,0.00,Wunderground v.1.15,2013-12-18 13:31:00,
2013-12-18 07:37:00,28.4,21.2,29.91,SE,127,1.0,7.0,74,0.00,,,0.00,Wunderground v.1.15,2013-12-18 13:37:00,
2013-12-18 07:42:00,28.8,21.9,29.91,ESE,104,1.0,7.0,75,0.00,,,0.00,Wunderground v.1.15,2013-12-18 13:42:00,
2013-12-18 07:48:00,29.4,22.8,29.91,ESE,109,1.0,7.0,76,0.00,,,0.00,Wunderground v.1.15,2013-12-18 13:48:00,
2013-12-18 07:54:00,30.4,23.4,29.90,South,174,1.0,7.0,75,0.00,,,0.00,Wunderground v.1.15,2013-12-18 13:54:00,
2013-12-18 08:00:00,31.2,23.9,29.90,ESE,107,1.0,7.0,74,0.00,,,0.00,Wunderground v.1.15,2013-12-18 14:00:00,
2013-12-18 08:05:00,31.9,24.6,29.90,ESE,119,1.0,7.0,74,0.00,,,0.00,Wunderground v.1.15,2013-12-18 14:05:00,
2013-12-18 08:11:00,32.4,24.7,29.90,ENE,67,1.0,7.0,73,0.00,,,0.00,Wunderground v.1.15,2013-12-18 14:11:00,
2013-12-18 08:16:00,32.7,24.7,29.90,ENE,71,1.0,7.0,72,0.00,,,0.00,Wunderground v.1.15,2013-12-18 14:16:00,
2013-12-18 08:21:00,33.0,25.0,29.90,SE,134,1.0,7.0,72,0.00,,,0.00,Wunderground v.1.15,2013-12-18 14:21:00,
2013-12-18 08:27:00,33.3,24.9,29.89,SSW,211,2.0,7.0,71,0.00,,,0.00,Wunderground v.1.15,2013-12-18 14:27:00,
2013-12-18 08:33:00,33.8,25.4,29.89,ENE,76,2.0,7.0,71,0.00,,,0.00,Wunderground v.1.15,2013-12-18 14:33:00,
2013-12-18 08:39:00,34.1,25.3,29.89,ESE,122,2.0,7.0,70,0.00,,,0.00,Wunderground v.1.15,2013-12-18 14:39:00,
2013-12-18 08:45:00,34.4,25.6,29.89,ESE,117,2.0,7.0,70,0.00,,,0.00,Wunderground v.1.15,2013-12-18 14:45:00,
2013-12-18 08:50:00,34.4,25.6,29.88,East,84,1.0,1.0,70,0.00,,,0.00,Wunderground v.1.15,2013-12-18 14:50:00,
2013-12-18 08:56:00,35.2,26.4,29.88,East,90,1.0,7.0,70,0.00,,,0.00,Wunderground v.1.15,2013-12-18 14:56:00,
2013-12-18 09:01:00,35.6,26.4,29.88,East,90,1.0,7.0,69,0.00,,,0.00,Wunderground v.1.15,2013-12-18 15:01:00,
2013-12-18 09:07:00,35.8,26.6,29.88,SE,136,1.0,7.0,69,0.00,,,0.00,Wunderground v.1.15,2013-12-18 15:07:00,
2013-12-18 09:13:00,36.0,26.8,29.87,SE,136,1.0,7.0,69,0.00,,,0.00,Wunderground v.1.15,2013-12-18 15:13:00,
2013-12-18 09:19:00,36.2,27.0,29.87,SE,127,1.0,7.0,69,0.00,,,0.00,Wunderground v.1.15,2013-12-18 15:19:00,
2013-12-18 09:24:00,36.5,27.6,29.87,SE,126,0.0,7.0,70,0.00,,,0.00,Wunderground v.1.15,2013-12-18 15:24:00,
2013-12-18 09:30:00,36.9,28.0,29.86,SE,140,1.0,7.0,70,0.00,,,0.00,Wunderground v.1.15,2013-12-18 15:30:00,
2013-12-18 09:35:00,37.5,28.2,29.86,SE,142,1.0,7.0,69,0.00,,,0.00,Wunderground v.1.15,2013-12-18 15:35:00,
2013-12-18 09:41:00,38.4,29.1,29.86,SW,215,1.0,7.0,69,0.00,,,0.00,Wunderground v.1.15,2013-12-18 15:41:00,
2013-12-18 09:47:00,40.0,29.9,29.85,SE,129,2.0,7.0,67,0.00,,,0.00,Wunderground v.1.15,2013-12-18 15:47:00,
2013-12-18 09:53:00,41.3,30.0,29.85,SSW,205,1.0,7.0,64,0.00,,,0.00,Wunderground v.1.15,2013-12-18 15:53:00,
2013-12-18 09:59:00,41.8,30.1,29.85,WSW,244,1.0,7.0,63,0.00,,,0.00,Wunderground v.1.15,2013-12-18 15:59:00,
2013-12-18 10:05:00,41.9,29.8,29.85,South,182,2.0,7.0,62,0.00,,,0.00,Wunderground v.1.15,2013-12-18 16:05:00,
2013-12-18 10:11:00,42.1,30.0,29.84,ESE,112,2.0,7.0,62,0.00,,,0.00,Wunderground v.1.15,2013-12-18 16:11:00,
2013-12-18 10:16:00,42.5,30.4,29.85,WSW,238,1.0,7.0,62,0.00,,,0.00,Wunderground v.1.15,2013-12-18 16:16:00,
2013-12-18 10:22:00,42.9,30.4,29.84,SE,138,1.0,7.0,61,0.00,,,0.00,Wunderground v.1.15,2013-12-18 16:22:00,
2013-12-18 10:28:00,43.3,30.7,29.84,SE,146,2.0,7.0,61,0.00,,,0.00,Wunderground v.1.15,2013-12-18 16:28:00,
2013-12-18 10:34:00,43.8,30.8,29.84,West,265,2.0,7.0,60,0.00,,,0.00,Wunderground v.1.15,2013-12-18 16:34:00,
2013-12-18 10:39:00,44.2,30.8,29.83,West,281,2.0,7.0,59,0.00,,,0.00,Wunderground v.1.15,2013-12-18 16:39:00,
2013-12-18 10:44:00,44.7,30.8,29.83,SSW,209,2.0,7.0,58,0.00,,,0.00,Wunderground v.1.15,2013-12-18 16:44:00,
2013-12-18 10:50:00,45.0,30.7,29.83,WSW,257,3.0,7.0,57,0.00,,,0.00,Wunderground v.1.15,2013-12-18 16:50:00,
2013-12-18 10:56:00,44.7,32.1,29.82,SW,214,3.0,7.0,61,0.00,,,0.00,Wunderground v.1.15,2013-12-18 16:56:00,
2013-12-18 11:01:00,44.8,31.3,29.82,WSW,244,3.0,7.0,59,0.00,,,0.00,Wunderground v.1.15,2013-12-18 17:01:00,
2013-12-18 11:07:00,45.4,31.5,29.81,WSW,250,3.0,7.0,58,0.00,,,0.00,Wunderground v.1.15,2013-12-18 17:07:00,
2013-12-18 11:13:00,45.9,31.5,29.81,West,261,3.0,7.0,57,0.00,,,0.00,Wunderground v.1.15,2013-12-18 17:13:00,
2013-12-18 11:18:00,46.1,31.7,29.81,SW,214,3.0,7.0,57,0.00,,,0.00,Wunderground v.1.15,2013-12-18 17:18:00,
2013-12-18 11:24:00,46.4,32.4,29.81,SW,229,3.0,7.0,58,0.00,,,0.00,Wunderground v.1.15,2013-12-18 17:24:00,
2013-12-18 11:30:00,46.7,32.3,29.81,SW,228,3.0,3.0,57,0.00,,,0.00,Wunderground v.1.15,2013-12-18 17:30:00,
2013-12-18 11:36:00,46.8,32.4,29.80,West,277,3.0,10.0,57,0.00,,,0.00,Wunderground v.1.15,2013-12-18 17:36:00,
2013-12-18 11:42:00,46.9,32.0,29.80,SSE,168,2.0,7.0,56,0.00,,,0.00,Wunderground v.1.15,2013-12-18 17:42:00,
2013-12-18 11:48:00,46.7,32.3,29.79,SW,232,2.0,7.0,57,0.00,,,0.00,Wunderground v.1.15,2013-12-18 17:48:00,
2013-12-18 11:53:00,46.6,32.2,29.79,SSW,195,2.0,7.0,57,0.00,,,0.00,Wunderground v.1.15,2013-12-18 17:53:00,
2013-12-18 11:59:00,46.4,32.0,29.79,WSW,254,2.0,7.0,57,0.00,,,0.00,Wunderground v.1.15,2013-12-18 17:59:00,
2013-12-18 12:05:00,46.1,32.1,29.78,WSW,243,2.0,7.0,58,0.00,,,0.00,Wunderground v.1.15,2013-12-18 18:05:00,
2013-12-18 12:11:00,45.9,32.4,29.78,SW,223,2.0,7.0,59,0.00,,,0.00,Wunderground v.1.15,2013-12-18 18:11:00,
2013-12-18 12:17:00,45.9,32.4,29.78,SSW,198,2.0,7.0,59,0.00,,,0.00,Wunderground v.1.15,2013-12-18 18:17:00,
2013-12-18 12:23:00,45.8,32.7,29.77,WSW,246,2.0,7.0,60,0.00,,,0.00,Wunderground v.1.15,2013-12-18 18:23:00,
2013-12-18 12:28:00,45.7,32.2,29.77,WSW,249,2.0,7.0,59,0.00,,,0.00,Wunderground v.1.15,2013-12-18 18:28:00,
2013-12-18 12:34:00,45.6,32.1,29.76,West,263,2.0,7.0,59,0.00,,,0.00,Wunderground v.1.15,2013-12-18 18:34:00,
2013-12-18 12:40:00,45.6,32.5,29.76,WSW,254,2.0,7.0,60,0.00,,,0.00,Wunderground v.1.15,2013-12-18 18:40:00,
2013-12-18 12:46:00,45.6,32.5,29.76,South,184,1.0,7.0,60,0.00,,,0.00,Wunderground v.1.15,2013-12-18 18:46:00,
2013-12-18 12:52:00,45.7,32.6,29.76,WSW,250,1.0,7.0,60,0.00,,,0.00,Wunderground v.1.15,2013-12-18 18:52:00,
2013-12-18 12:58:00,45.8,33.1,29.75,WSW,250,1.0,7.0,61,0.00,,,0.00,Wunderground v.1.15,2013-12-18 18:58:00,
2013-12-18 13:04:00,46.0,33.3,29.75,SW,230,1.0,7.0,61,0.00,,,0.00,Wunderground v.1.15,2013-12-18 19:04:00,
2013-12-18 13:10:00,46.1,33.4,29.75,WSW,244,1.0,7.0,61,0.00,,,0.00,Wunderground v.1.15,2013-12-18 19:10:00,
2013-12-18 13:16:00,46.4,33.7,29.75,WSW,237,2.0,7.0,61,0.00,,,0.00,Wunderground v.1.15,2013-12-18 19:16:00,
2013-12-18 13:22:00,46.6,33.9,29.74,WSW,254,2.0,7.0,61,0.00,,,0.00,Wunderground v.1.15,2013-12-18 19:22:00,
2013-12-18 13:28:00,46.8,34.0,29.74,WSW,246,2.0,7.0,61,0.00,,,0.00,Wunderground v.1.15,2013-12-18 19:28:00,
2013-12-18 13:34:00,47.0,33.8,29.74,WSW,238,1.0,7.0,60,0.00,,,0.00,Wunderground v.1.15,2013-12-18 19:34:00,
2013-12-18 13:40:00,47.2,34.4,29.74,SW,229,1.0,1.0,61,0.00,,,0.00,Wunderground v.1.15,2013-12-18 19:40:00,
2013-12-18 13:45:00,47.3,34.5,29.74,SW,229,1.0,7.0,61,0.00,,,0.00,Wunderground v.1.15,2013-12-18 19:45:00,
2013-12-18 13:51:00,47.4,34.2,29.74,SSW,213,1.0,7.0,60,0.00,,,0.00,Wunderground v.1.15,2013-12-18 19:51:00,
2013-12-18 13:57:00,47.5,34.7,29.73,SSW,213,1.0,7.0,61,0.00,,,0.00,Wunderground v.1.15,2013-12-18 19:57:00,
2013-12-18 14:03:00,47.6,34.4,29.73,WSW,244,1.0,7.0,60,0.00,,,0.00,Wunderground v.1.15,2013-12-18 20:03:00,
2013-12-18 14:09:00,47.8,34.6,29.73,WSW,249,2.0,7.0,60,0.00,,,0.00,Wunderground v.1.15,2013-12-18 20:09:00,
2013-12-18 14:15:00,48.1,34.4,29.73,SW,234,1.0,7.0,59,0.00,,,0.00,Wunderground v.1.15,2013-12-18 20:15:00,
2013-12-18 14:21:00,48.6,34.9,29.73,WSW,245,2.0,7.0,59,0.00,,,0.00,Wunderground v.1.15,2013-12-18 20:21:00,
2013-12-18 14:27:00,48.7,34.6,29.73,WSW,245,1.0,7.0,58,0.00,,,0.00,Wunderground v.1.15,2013-12-18 20:27:00,
2013-12-18 14:33:00,48.7,34.6,29.73,WSW,244,1.0,7.0,58,0.00,,,0.00,Wunderground v.1.15,2013-12-18 20:33:00,
2013-12-18 14:39:00,48.7,34.6,29.73,SW,230,1.0,7.0,58,0.00,,,0.00,Wunderground v.1.15,2013-12-18 20:39:00,
2013-12-18 14:45:00,48.8,34.7,29.73,SW,234,1.0,7.0,58,0.00,,,0.00,Wunderground v.1.15,2013-12-18 20:45:00,
2013-12-18 14:50:00,48.7,34.6,29.73,SW,235,1.0,1.0,58,0.00,,,0.00,Wunderground v.1.15,2013-12-18 20:50:00,
2013-12-18 14:56:00,48.6,34.5,29.73,SW,235,1.0,7.0,58,0.00,,,0.00,Wunderground v.1.15,2013-12-18 20:56:00,
2013-12-18 15:02:00,48.5,34.8,29.73,WSW,240,1.0,7.0,59,0.00,,,0.00,Wunderground v.1.15,2013-12-18 21:02:00,
2013-12-18 15:07:00,48.3,34.2,29.73,SW,227,2.0,7.0,58,0.00,,,0.00,Wunderground v.1.15,2013-12-18 21:07:00,
2013-12-18 15:13:00,48.3,34.2,29.73,WSW,243,2.0,7.0,58,0.00,,,0.00,Wunderground v.1.15,2013-12-18 21:13:00,
2013-12-18 15:19:00,48.3,34.2,29.73,SW,228,2.0,7.0,58,0.00,,,0.00,Wunderground v.1.15,2013-12-18 21:19:00,
2013-12-18 15:25:00,48.3,34.2,29.73,WSW,244,2.0,7.0,58,0.00,,,0.00,Wunderground v.1.15,2013-12-18 21:25:00,
2013-12-18 15:31:00,48.3,34.2,29.73,WSW,244,1.0,7.0,58,0.00,,,0.00,Wunderground v.1.15,2013-12-18 21:31:00,
2013-12-18 15:37:00,48.2,34.5,29.73,WSW,244,0.0,7.0,59,0.00,,,0.00,Wunderground v.1.15,2013-12-18 21:37:00,
2013-12-18 15:43:00,48.1,34.4,29.73,WSW,244,0.0,7.0,59,0.00,,,0.00,Wunderground v.1.15,2013-12-18 21:43:00,
2013-12-18 15:48:00,47.8,34.2,29.73,WSW,244,0.0,7.0,59,0.00,,,0.00,Wunderground v.1.15,2013-12-18 21:48:00,
2013-12-18 15:54:00,47.6,34.4,29.73,WSW,244,0.0,7.0,60,0.00,,,0.00,Wunderground v.1.15,2013-12-18 21:54:00,
2013-12-18 16:00:00,47.4,34.2,29.74,WSW,244,0.0,7.0,60,0.00,,,0.00,Wunderground v.1.15,2013-12-18 22:00:00,
2013-12-18 16:06:00,47.3,34.1,29.73,WSW,244,0.0,7.0,60,0.00,,,0.00,Wunderground v.1.15,2013-12-18 22:06:00,
2013-12-18 16:11:00,47.1,33.9,29.73,WSW,244,0.0,7.0,60,0.00,,,0.00,Wunderground v.1.15,2013-12-18 22:11:00,
2013-12-18 16:17:00,46.8,34.0,29.73,WSW,244,0.0,7.0,61,0.00,,,0.00,Wunderground v.1.15,2013-12-18 22:17:00,
2013-12-18 16:22:00,46.5,33.8,29.73,WSW,244,0.0,7.0,61,0.00,,,0.00,Wunderground v.1.15,2013-12-18 22:22:00,
2013-12-18 16:28:00,45.9,33.6,29.73,WSW,244,0.0,7.0,62,0.00,,,0.00,Wunderground v.1.15,2013-12-18 22:28:00,
2013-12-18 16:33:00,45.4,33.5,29.73,WSW,244,0.0,7.0,63,0.00,,,0.00,Wunderground v.1.15,2013-12-18 22:33:00,
2013-12-18 16:39:00,44.9,33.5,29.73,WSW,244,0.0,7.0,64,0.00,,,0.00,Wunderground v.1.15,2013-12-18 22:39:00,
2013-12-18 16:45:00,44.3,33.3,29.74,WSW,244,0.0,7.0,65,0.00,,,0.00,Wunderground v.1.15,2013-12-18 22:45:00,
2013-12-18 16:51:00,43.8,32.8,29.73,WSW,244,0.0,7.0,65,0.00,,,0.00,Wunderground v.1.15,2013-12-18 22:51:00,
2013-12-18 16:56:00,43.3,32.7,29.73,WSW,244,0.0,7.0,66,0.00,,,0.00,Wunderground v.1.15,2013-12-18 22:56:00,
2013-12-18 17:02:00,42.7,32.5,29.74,WSW,244,0.0,7.0,67,0.00,,,0.00,Wunderground v.1.15,2013-12-18 23:02:00,
2013-12-18 17:08:00,42.4,32.6,29.74,WSW,244,0.0,7.0,68,0.00,,,0.00,Wunderground v.1.15,2013-12-18 23:08:00,
2013-12-18 17:13:00,42.1,32.7,29.74,WSW,244,0.0,7.0,69,0.00,,,0.00,Wunderground v.1.15,2013-12-18 23:13:00,
2013-12-18 17:19:00,41.8,32.7,29.73,WSW,244,0.0,7.0,70,0.00,,,0.00,Wunderground v.1.15,2013-12-18 23:19:00,
2013-12-18 17:25:00,41.5,32.4,29.73,WSW,244,0.0,7.0,70,0.00,,,0.00,Wunderground v.1.15,2013-12-18 23:25:00,
2013-12-18 17:30:00,41.2,32.2,29.73,WSW,244,0.0,7.0,70,0.00,,,0.00,Wunderground v.1.15,2013-12-18 23:30:00,
2013-12-18 17:36:00,40.8,32.1,29.73,WSW,244,0.0,7.0,71,0.00,,,0.00,Wunderground v.1.15,2013-12-18 23:36:00,
2013-12-18 17:42:00,40.3,32.0,29.73,WSW,244,0.0,7.0,72,0.00,,,0.00,Wunderground v.1.15,2013-12-18 23:42:00,
2013-12-18 17:48:00,39.9,31.6,29.73,WSW,244,0.0,7.0,72,0.00,,,0.00,Wunderground v.1.15,2013-12-18 23:48:00,
2013-12-18 17:54:00,39.6,31.7,29.73,WSW,244,0.0,7.0,73,0.00,,,0.00,Wunderground v.1.15,2013-12-18 23:54:00,
2013-12-18 18:00:00,39.5,31.6,29.73,WSW,244,0.0,7.0,73,0.00,,,0.00,Wunderground v.1.15,2013-12-19 00:00:00,
2013-12-18 18:06:00,39.2,31.6,29.73,WSW,244,0.0,7.0,74,0.00,,,0.00,Wunderground v.1.15,2013-12-19 00:06:00,
2013-12-18 18:12:00,39.0,31.4,29.73,WSW,244,0.0,7.0,74,0.00,,,0.00,Wunderground v.1.15,2013-12-19 00:12:00,
2013-12-18 18:18:00,38.9,31.6,29.73,WSW,244,0.0,7.0,75,0.00,,,0.00,Wunderground v.1.15,2013-12-19 00:18:00,
2013-12-18 18:24:00,38.8,31.6,29.73,WSW,244,0.0,7.0,75,0.00,,,0.00,Wunderground v.1.15,2013-12-19 00:24:00,
2013-12-18 18:30:00,38.9,31.6,29.73,WSW,244,0.0,7.0,75,0.00,,,0.00,Wunderground v.1.15,2013-12-19 00:30:00,
2013-12-18 18:35:00,38.9,31.6,29.73,WSW,244,0.0,7.0,75,0.00,,,0.00,Wunderground v.1.15,2013-12-19 00:35:00,
2013-12-18 18:41:00,38.9,32.0,29.74,WSW,244,0.0,7.0,76,0.00,,,0.00,Wunderground v.1.15,2013-12-19 00:41:00,
2013-12-18 18:46:00,39.2,32.3,29.73,WSW,244,0.0,7.0,76,0.00,,,0.00,Wunderground v.1.15,2013-12-19 00:46:00,
2013-12-18 18:52:00,39.4,32.1,29.74,WSW,244,0.0,7.0,75,0.00,,,0.00,Wunderground v.1.15,2013-12-19 00:52:00,
2013-12-18 18:58:00,39.6,32.3,29.73,WSW,244,0.0,7.0,75,0.00,,,0.00,Wunderground v.1.15,2013-12-19 00:58:00,
2013-12-18 19:04:00,39.8,32.5,29.73,WSW,244,0.0,7.0,75,0.00,,,0.00,Wunderground v.1.15,2013-12-19 01:04:00,
2013-12-18 19:10:00,40.0,32.7,29.73,WSW,244,0.0,7.0,75,0.00,,,0.00,Wunderground v.1.15,2013-12-19 01:10:00,
2013-12-18 19:16:00,40.2,32.6,29.73,WSW,244,0.0,7.0,74,0.00,,,0.00,Wunderground v.1.15,2013-12-19 01:16:00,
2013-12-18 19:22:00,40.3,32.7,29.74,WSW,244,0.0,7.0,74,0.00,,,0.00,Wunderground v.1.15,2013-12-19 01:22:00,
2013-12-18 19:27:00,40.2,32.6,29.74,WSW,244,0.0,7.0,74,0.00,,,0.00,Wunderground v.1.15,2013-12-19 01:27:00,
2013-12-18 19:33:00,40.0,32.7,29.74,WSW,244,0.0,7.0,75,0.00,,,0.00,Wunderground v.1.15,2013-12-19 01:33:00,
2013-12-18 19:39:00,39.7,32.4,29.74,WSW,244,0.0,7.0,75,0.00,,,0.00,Wunderground v.1.15,2013-12-19 01:39:00,
2013-12-18 19:45:00,39.3,32.4,29.74,WSW,244,0.0,7.0,76,0.00,,,0.00,Wunderground v.1.15,2013-12-19 01:45:00,
2013-12-18 19:50:00,39.1,32.2,29.74,WSW,244,0.0,7.0,76,0.00,,,0.00,Wunderground v.1.15,2013-12-19 01:50:00,
2013-12-18 19:56:00,38.9,32.0,29.74,WSW,244,0.0,7.0,76,0.00,,,0.00,Wunderground v.1.15,2013-12-19 01:56:00,
2013-12-18 20:02:00,38.6,32.0,29.73,WSW,244,0.0,7.0,77,0.00,,,0.00,Wunderground v.1.15,2013-12-19 02:02:00,
2013-12-18 20:08:00,38.4,31.8,29.74,WSW,244,0.0,7.0,77,0.00,,,0.00,Wunderground v.1.15,2013-12-19 02:08:00,
2013-12-18 20:14:00,38.4,32.1,29.74,WSW,244,0.0,7.0,78,0.00,,,0.00,Wunderground v.1.15,2013-12-19 02:14:00,
2013-12-18 20:20:00,38.4,32.1,29.74,WSW,244,0.0,7.0,78,0.00,,,0.00,Wunderground v.1.15,2013-12-19 02:20:00,
2013-12-18 20:26:00,38.3,31.7,29.74,WSW,244,0.0,7.0,77,0.00,,,0.00,Wunderground v.1.15,2013-12-19 02:26:00,
2013-12-18 20:32:00,38.2,31.9,29.74,WSW,244,0.0,7.0,78,0.00,,,0.00,Wunderground v.1.15,2013-12-19 02:32:00,
2013-12-18 20:38:00,38.0,31.7,29.74,WSW,244,0.0,7.0,78,0.00,,,0.00,Wunderground v.1.15,2013-12-19 02:38:00,
2013-12-18 20:44:00,37.7,31.5,29.74,WSW,244,0.0,7.0,78,0.00,,,0.00,Wunderground v.1.15,2013-12-19 02:44:00,
2013-12-18 20:50:00,37.7,31.8,29.74,WSW,244,0.0,7.0,79,0.00,,,0.00,Wunderground v.1.15,2013-12-19 02:50:00,
2013-12-18 20:56:00,37.7,31.8,29.73,WSW,244,0.0,7.0,79,0.00,,,0.00,Wunderground v.1.15,2013-12-19 02:56:00,
2013-12-18 21:02:00,37.5,31.6,29.74,WSW,244,0.0,7.0,79,0.00,,,0.00,Wunderground v.1.15,2013-12-19 03:02:00,
2013-12-18 21:08:00,37.3,31.4,29.74,WSW,244,0.0,7.0,79,0.00,,,0.00,Wunderground v.1.15,2013-12-19 03:08:00,
2013-12-18 21:14:00,37.0,31.1,29.74,WSW,244,0.0,7.0,79,0.00,,,0.00,Wunderground v.1.15,2013-12-19 03:14:00,
2013-12-18 21:20:00,36.8,31.2,29.74,WSW,244,0.0,7.0,80,0.00,,,0.00,Wunderground v.1.15,2013-12-19 03:20:00,
2013-12-18 21:26:00,36.6,31.0,29.73,WSW,244,0.0,7.0,80,0.00,,,0.00,Wunderground v.1.15,2013-12-19 03:26:00,
2013-12-18 21:32:00,36.4,30.8,29.73,WSW,244,0.0,7.0,80,0.00,,,0.00,Wunderground v.1.15,2013-12-19 03:32:00,
2013-12-18 21:37:00,36.2,30.6,29.74,WSW,244,0.0,7.0,80,0.00,,,0.00,Wunderground v.1.15,2013-12-19 03:37:00,
2013-12-18 21:43:00,36.0,30.7,29.74,WSW,244,0.0,7.0,81,0.00,,,0.00,Wunderground v.1.15,2013-12-19 03:43:00,
2013-12-18 21:48:00,36.0,30.7,29.74,WSW,244,0.0,7.0,81,0.00,,,0.00,Wunderground v.1.15,2013-12-19 03:48:00,
2013-12-18 21:53:00,36.0,31.0,29.74,WSW,244,0.0,7.0,82,0.00,,,0.00,Wunderground v.1.15,2013-12-19 03:53:00,
2013-12-18 21:59:00,36.0,31.0,29.74,WSW,244,0.0,7.0,82,0.00,,,0.00,Wunderground v.1.15,2013-12-19 03:59:00,
2013-12-18 22:04:00,35.8,30.8,29.74,WSW,244,0.0,7.0,82,0.00,,,0.00,Wunderground v.1.15,2013-12-19 04:04:00,
2013-12-18 22:09:00,35.6,30.6,29.74,WSW,244,0.0,7.0,82,0.00,,,0.00,Wunderground v.1.15,2013-12-19 04:09:00,
2013-12-18 22:15:00,35.6,30.6,29.74,WSW,244,0.0,7.0,82,0.00,,,0.00,Wunderground v.1.15,2013-12-19 04:15:00,
2013-12-18 22:20:00,35.5,30.5,29.74,WSW,244,0.0,7.0,82,0.00,,,0.00,Wunderground v.1.15,2013-12-19 04:20:00,
2013-12-18 22:25:00,35.5,30.8,29.75,WSW,244,0.0,7.0,83,0.00,,,0.00,Wunderground v.1.15,2013-12-19 04:25:00,
2013-12-18 22:31:00,35.3,30.4,29.74,WSW,244,0.0,7.0,82,0.00,,,0.00,Wunderground v.1.15,2013-12-19 04:31:00,
2013-12-18 22:36:00,35.3,30.7,29.74,WSW,244,0.0,7.0,83,0.00,,,0.00,Wunderground v.1.15,2013-12-19 04:36:00,
2013-12-18 22:41:00,35.3,30.7,29.75,WSW,244,0.0,7.0,83,0.00,,,0.00,Wunderground v.1.15,2013-12-19 04:41:00,
2013-12-18 22:47:00,35.2,30.6,29.75,WSW,244,0.0,7.0,83,0.00,,,0.00,Wunderground v.1.15,2013-12-19 04:47:00,
2013-12-18 22:52:00,35.2,30.6,29.74,WSW,244,0.0,7.0,83,0.00,,,0.00,Wunderground v.1.15,2013-12-19 04:52:00,
2013-12-18 22:57:00,35.2,30.6,29.74,WSW,244,0.0,7.0,83,0.00,,,0.00,Wunderground v.1.15,2013-12-19 04:57:00,
2013-12-18 23:01:00,35.3,30.7,29.74,WSW,244,0.0,7.0,83,0.00,,,0.00,Wunderground v.1.15,2013-12-19 05:01:00,
2013-12-18 23:02:00,35.3,30.7,29.74,WSW,244,0.0,7.0,83,0.00,,,0.00,Wunderground v.1.15,2013-12-19 05:02:00,
2013-12-18 23:08:00,35.3,30.7,29.74,WSW,244,0.0,7.0,83,0.00,,,0.00,Wunderground v.1.15,2013-12-19 05:08:00,
2013-12-18 23:09:00,35.3,30.7,29.74,WSW,244,0.0,7.0,83,0.00,,,0.00,Wunderground v.1.15,2013-12-19 05:09:00,
2013-12-18 23:12:00,35.2,30.6,29.74,WSW,244,0.0,7.0,83,0.00,,,0.00,Wunderground v.1.15,2013-12-19 05:12:00,
2013-12-18 23:15:00,35.1,30.5,29.74,WSW,244,0.0,7.0,83,0.00,,,0.00,Wunderground v.1.15,2013-12-19 05:15:00,
2013-12-18 23:21:00,34.8,30.2,29.74,WSW,244,0.0,7.0,83,0.00,,,0.00,Wunderground v.1.15,2013-12-19 05:21:00,
2013-12-18 23:27:00,34.4,29.8,29.74,WSW,244,0.0,7.0,83,0.00,,,0.00,Wunderground v.1.15,2013-12-19 05:27:00,
2013-12-18 23:33:00,34.4,29.8,29.74,WSW,244,0.0,7.0,83,0.00,,,0.00,Wunderground v.1.15,2013-12-19 05:33:00,
2013-12-18 23:38:00,34.1,29.8,29.74,WSW,244,0.0,7.0,84,0.00,,,0.00,Wunderground v.1.15,2013-12-19 05:38:00,
2013-12-18 23:44:00,34.0,29.7,29.74,WSW,244,0.0,7.0,84,0.00,,,0.00,Wunderground v.1.15,2013-12-19 05:44:00,
2013-12-18 23:49:00,33.9,29.6,29.74,WSW,244,0.0,7.0,84,0.00,,,0.00,Wunderground v.1.15,2013-12-19 05:49:00,
2013-12-18 23:55:00,33.8,29.8,29.74,WSW,244,0.0,7.0,85,0.00,,,0.00,Wunderground v.1.15,2013-12-19 05:55:00,